Aérodrome :
LOGIN :

S'inscrire | Disclaimer

   EN    FR    IT 

 










Légende :    VFR   VFR Marginal   IFR   IFR Intensif   IFR Très Intensif
Visi : 
Plafond : 
>= 8 km
>= 3000ft
5 à 8 km
1000 à 3000 ft
1500m à 5 km
500 à 1000 ft
800 à 1500m
200 à 500 ft
< 800m
< 200 ft
Symboles :   Orages  Brouillard  Fortes neiges  Fortes précipitations  Vent > 20 kt
SIGMETs :   Divers  Orages  Givrage  Turbulence  Onde Orograph.  Cendres Volcan.







- Altitude de l'aérodrome : 75 ft
- Code IATA : YEO


EGDY - RNAS Yeovilton

DERNIER METAR :
  • 181750Z 15002KT CAVOK 02/01 Q1032 BLU BECMG 4000 BR GRN

METARs EXPIRÉS :
  • 181650Z 29003KT 9999 FEW010 SCT200 05/04 Q1032 BLU BECMG 4000 BR GRN
  • 181550Z 28002KT 9999 FEW010 07/04 Q1031 BLU NOSIG

TAF TAF EGDY
Valide du 18 à 15h jusqu'au 19 à 00h UTC


181339Z 1815/1824 VRB04KT FEW010 9999
BECMG 1817/1819 4000 BR
BECMG 1821/1823 0500 FG BKN000
Pas de NOTAMs connus pour ce terrain.



MET'MAP, la Météo Aéronautique d'un coup d'oeil ! - Copyright ORBIFLY Décembre 2007 - Disclaimer

ORBIFLY MET'MAP TEAM :

Programmation & Développement : Alexandra Zaïnal
Conception & Développement : Baudouin d'Aumeries
Co-Programmation & Développement : Marc-Olivier Méhu
Soutien technique & logistique : Manuel Goepfert

Contact : metmap@orbifly.com




SOURCES & CREDITS :

   NOAA